This is the latest recevied weather packets stored in our database for station/object JS2WAD-13. If no packets are shown the sender has not sent any weather packets the latest 1 day(s).
| Time | Temp. | Humidity | Pressure | Rain* | Wind** | Luminosity | Snow |
|---|---|---|---|---|---|---|---|
| 1777981883 | 18.89° C | 51% | 912.7 hPa | 0 mm | 0 m/s | 0 W/m² | - |
| 1777981583 | 18.89° C | 51% | 912.8 hPa | 0 mm | 0 m/s | 0 W/m² | - |
| 1777981283 | 18.89° C | 51% | 912.7 hPa | 0 mm | 0 m/s | 0 W/m² | - |
| 1777980983 | 18.89° C | 52% | 912.8 hPa | 0 mm | 0 m/s | 0 W/m² | - |
| 1777980683 | 18.89° C | 51% | 912.7 hPa | 0 mm | 0.45 m/s, 163° | 0 W/m² | - |
| 1777980383 | 18.89° C | 51% | 912.7 hPa | 0 mm | 0.45 m/s, 162° | 0 W/m² | - |
| 1777980083 | 18.89° C | 51% | 912.6 hPa | 0 mm | 0.45 m/s, 160° | 0 W/m² | - |
| 1777979783 | 18.89° C | 51% | 912.6 hPa | 0 mm | 0.45 m/s, 162° | 0 W/m² | - |
| 1777979483 | 18.89° C | 51% | 912.6 hPa | 0 mm | 0.45 m/s, 161° | 0 W/m² | - |
| 1777979183 | 18.89° C | 51% | 912.6 hPa | 0 mm | 0.45 m/s, 162° | 0 W/m² | - |
| 1777978883 | 19.44° C | 51% | 912.5 hPa | 0 mm | 0.45 m/s, 165° | 0 W/m² | - |
| 1777978583 | 19.44° C | 51% | 912.5 hPa | 0 mm | 0.45 m/s, 163° | 0 W/m² | - |
| 1777978283 | 19.44° C | 51% | 912.4 hPa | 0 mm | 0.45 m/s, 166° | 0 W/m² | - |
| 1777977983 | 19.44° C | 51% | 912.2 hPa | 0 mm | 0.45 m/s, 164° | 0 W/m² | - |
| 1777977683 | 19.44° C | 51% | 912.4 hPa | 0 mm | 0.45 m/s, 165° | 0 W/m² | - |
| 1777977383 | 19.44° C | 51% | 912.3 hPa | 0 mm | 0.45 m/s, 164° | 0 W/m² | - |
| 1777977083 | 19.44° C | 51% | 912.3 hPa | 0 mm | 0.45 m/s, 164° | 0 W/m² | - |
| 1777976783 | 19.44° C | 51% | 912.4 hPa | 0 mm | 0.89 m/s, 164° | 0 W/m² | - |
| 1777976483 | 19.44° C | 51% | 912.2 hPa | 0 mm | 0.89 m/s, 359° | 0 W/m² | - |
| 1777976183 | 19.44° C | 51% | 912.3 hPa | 0 mm | 1.34 m/s, 152° | 0 W/m² | - |
| 1777975883 | 19.44° C | 51% | 912.2 hPa | 0 mm | 0.89 m/s, 140° | 0 W/m² | - |
| 1777975583 | 19.44° C | 51% | 912.1 hPa | 0 mm | 1.34 m/s, 152° | 0 W/m² | - |
| 1777975283 | 19.44° C | 51% | 912.1 hPa | 0 mm | 1.79 m/s, 151° | 0 W/m² | - |
| 1777974983 | 19.44° C | 51% | 912 hPa | 0 mm | 1.34 m/s, 149° | 0 W/m² | - |
| 1777974683 | 19.44° C | 51% | 912 hPa | 0 mm | 1.34 m/s, 154° | 0 W/m² | - |
* Rain latest hour (hover to see other rain measurements)
** Current wind speed in m/s (hover to see current wind gust speed)